Simultaneous Nadir Overpasses (SNOs) Predictions

Prediction of SNOs between GOES-15 and LANDSAT-8 Satellite Orbit:

Table of predicted SNOs for the next 14.0 days since TLE Epoch: 7/14/2024
Index Date Time (GOES-15) GOES-15 Lat,Lon LANDSAT-8 Lat,Lon Distance(km) Time Diff (sec)
1 07/15/2024 06:10:51 0.00, 61.12 0.12, 60.57 62.55 80
2 07/17/2024 05:56:02 -0.00, 61.12 -0.49, 63.52 271.95 80
3 07/17/2024 18:20:06 -0.04, 61.20 -0.66, 58.34 325.15 80
4 07/19/2024 18:06:36 -0.03, 61.21 -0.03, 61.29 8.75 1
5 07/21/2024 17:53:08 -0.02, 61.23 0.63, 64.24 341.85 80
6 07/22/2024 06:17:03 0.06, 61.17 0.53, 59.09 236.64 80
7 07/24/2024 06:02:14 0.05, 61.19 -0.15, 62.03 96.49 80
8 07/26/2024 05:50:03 0.04, 61.22 -0.74, 65.00 429.71 80
9 07/26/2024 18:14:07 -0.09, 61.29 -0.38, 59.81 167.74 80
